This demonstration page uses our WeatherBlox Daily Observations layout. Learn more.

41.55636, -103.73856

Hourly Observations for May 21, 2018

Temp ( °F °C ) Dew Point ( °F °C ) Humidity (%) Winds ( mph kmh ) Pressure ( in mb ) Visibility ( mi km ) Precip ( " mm )
12:53 am 00:53 Clear 48 8.9 46 7.8 93 93 ESE 7 11 30 1016 10 16.09344 0 0
1:53 am 01:53 Clear 47 8.3 46 7.8 97 97 ESE 8 13 30 1016 10 16.09344 0 0
2:53 am 02:53 Clear 46 7.8 45 7.2 96 96 E 7 11 29.97 1015 10 16.09344 0 0
3:53 am 03:53 Clear 46 7.8 45 7.2 96 96 ESE 8 13 29.97 1015 10 16.09344 0 0
4:53 am 04:53 Clear 45 7.2 45 7.2 100 100 ESE 6 9 29.94 1014 10 16.09344 0 0
5:53 am 05:53 Sunny 46 7.8 45 7.2 96 96 E 8 13 29.94 1014 8 12.874752 0 0
6:53 am 06:53 Sunny 49 9.4 47 8.3 93 93 ESE 8 13 29.94 1014 10 16.09344 0 0
7:53 am 07:53 Sunny 52 11.1 50 10 93 93 SE 7 11 29.94 1014 10 16.09344 0 0
8:20 am 08:20 Mostly Cloudy 54 12 50 10 88 88 SSE 7 11 29.94 1014 10 16.09344 0 0
8:53 am 08:53 Cloudy 54 12.2 51 10.6 90 90 SE 6 9 29.94 1014 10 16.09344 0 0
9:53 am 09:53 Partly Cloudy 57 13.9 52 11.1 83 83 SSE 9 15 29.94 1014 10 16.09344 0 0
10:53 am 10:53 Sunny 62 16.7 54 12.2 75 75 E 3 6 29.91 1013 10 16.09344 0 0
11:53 am 11:53 Sunny 63 17.2 54 12.2 73 73 SE 7 11 29.91 1013 10 16.09344 0 0
12:53 pm 12:53 Sunny 68 20 56 13.3 65 65 E 7 11 29.88 1012 10 16.09344 0 0
1:53 pm 13:53 Sunny 70 21.1 56 13.3 61 61 SE 8 13 29.88 1012 10 16.09344 0 0
2:53 pm 14:53 Sunny 73 22.8 55 12.8 53 53 E 9 15 29.85 1011 10 16.09344 0 0
3:53 pm 15:53 Sunny 72 22.2 55 12.8 55 55 SE 10 17 29.85 1011 10 16.09344 0 0
4:53 pm 16:53 Sunny 72 22.2 58 14.4 61 61 ESE 7 11 29.83 1010 10 16.09344 0 0
5:53 pm 17:53 Sunny 70 21.1 59 15 68 68 ESE 7 11 29.85 1011 10 16.09344 0 0
6:53 pm 18:53 Sunny 69 20.6 61 16.1 76 76 ESE 7 11 29.85 1011 10 16.09344 0 0
7:53 pm 19:53 Sunny 66 18.9 61 16.1 84 84 SE 8 13 29.83 1010 10 16.09344 0 0
8:53 pm 20:53 Clear 61 16.1 59 15 93 93 ENE 9 15 29.83 1010 10 16.09344 0 0
9:53 pm 21:53 Clear 60 15.6 57 13.9 90 90 E 10 17 29.85 1011 10 16.09344 0 0
10:53 pm 22:53 Clear 60 15.6 57 13.9 90 90 E 6 9 29.85 1011 10 16.09344 0 0
11:53 pm 23:53 Clear 58 14.4 56 13.3 93 93 S 5 7 29.85 1011 10 16.09344 0 0

Powered by AerisWeather